TimePST,TemperatureF,Dew PointF,Humidity,Sea Level PressureIn,VisibilityMPH,Wind Direction,Wind SpeedMPH,Gust SpeedMPH,PrecipitationIn,Events,Conditions,WindDirDegrees,DateUTC
12:53 AM,43.0,41.0,93,29.99,10.0,WNW,3.5,-,N/A,,Partly Cloudy,300,2012-12-18 08:53:00
1:53 AM,44.1,39.9,85,29.99,10.0,Calm,Calm,-,N/A,,Partly Cloudy,0,2012-12-18 09:53:00
2:53 AM,42.1,39.0,89,29.99,10.0,Calm,Calm,-,N/A,,Mostly Cloudy,0,2012-12-18 10:53:00
3:53 AM,42.1,37.9,85,29.99,10.0,Calm,Calm,-,N/A,,Mostly Cloudy,0,2012-12-18 11:53:00
4:53 AM,42.1,37.0,82,29.99,10.0,West,3.5,-,N/A,,Mostly Cloudy,270,2012-12-18 12:53:00
5:53 AM,41.0,34.0,76,30.01,10.0,SSW,3.5,-,N/A,,Clear,210,2012-12-18 13:53:00
6:53 AM,39.0,32.0,76,30.03,10.0,West,3.5,-,N/A,,Clear,260,2012-12-18 14:53:00
7:53 AM,37.9,32.0,79,30.04,10.0,Calm,Calm,-,N/A,,Clear,0,2012-12-18 15:53:00
8:53 AM,42.1,33.1,70,30.06,10.0,Calm,Calm,-,N/A,,Clear,0,2012-12-18 16:53:00
9:53 AM,45.0,33.1,63,30.07,10.0,WSW,4.6,-,N/A,,Clear,240,2012-12-18 17:53:00
10:53 AM,48.9,33.1,54,30.07,10.0,West,10.4,-,N/A,,Clear,280,2012-12-18 18:53:00
11:53 AM,51.1,30.9,46,30.04,10.0,WNW,8.1,-,N/A,,Clear,300,2012-12-18 19:53:00
12:53 PM,51.1,28.9,43,30.03,10.0,WNW,15.0,20.7,N/A,,Partly Cloudy,300,2012-12-18 20:53:00
1:53 PM,51.1,28.9,43,30.03,10.0,NW,12.7,-,N/A,,Partly Cloudy,320,2012-12-18 21:53:00
2:53 PM,51.1,30.0,44,30.03,10.0,WNW,12.7,-,N/A,,Partly Cloudy,290,2012-12-18 22:53:00
3:53 PM,50.0,28.9,44,30.04,10.0,West,11.5,-,N/A,,Clear,280,2012-12-18 23:53:00
4:53 PM,46.9,28.0,48,30.05,10.0,WNW,10.4,-,N/A,,Clear,290,2012-12-19 00:53:00
5:53 PM,44.1,28.9,55,30.08,10.0,Calm,Calm,-,N/A,,Clear,0,2012-12-19 01:53:00
6:53 PM,43.0,30.0,60,30.10,10.0,Calm,Calm,-,N/A,,Clear,0,2012-12-19 02:53:00
7:53 PM,39.9,30.9,70,30.13,10.0,SW,5.8,-,N/A,,Clear,230,2012-12-19 03:53:00
8:53 PM,41.0,30.9,67,30.14,10.0,West,8.1,-,N/A,,Clear,260,2012-12-19 04:53:00
9:53 PM,39.9,30.0,68,30.17,10.0,West,4.6,-,N/A,,Clear,260,2012-12-19 05:53:00
10:53 PM,39.0,30.0,70,30.18,10.0,Calm,Calm,-,N/A,,Clear,0,2012-12-19 06:53:00
11:53 PM,35.1,30.0,82,30.19,10.0,ENE,3.5,-,N/A,,Clear,60,2012-12-19 07:53:00